#timestamp,LO_Frequency,Hit,StdDev 
1568613615.6,286047003.9,N
1568613635.8,286047003.8,N
1568613655.6,286047003.1,N
1568613675.5,286047003.1,N
1568613695.3,286047003.4,N
1568613715.1,286047004.3,Y
1568613735.9,286046996.5,P
1568613755.7,286046996.6,N
1568613775.6,286046996.7,N
1568613795.4,286046996.5,N
1568613815.2,286046997.3,N
1568613835.1,286046997.5,N
1568613836.0,286046997.5,N
1568613855.8,286046998.0,N
1568613875.7,286046995.4,N
1568613895.5,286046995.1,N
1568613915.3,286046998.0,N
1568613935.2,286046998.0,N
1568613955.0,286046997.6,N
1568613955.9,286046997.6,N
1568613975.8,286046995.2,N
1568613995.6,286046996.0,N
1568614015.4,286046996.0,N
1568614035.3,286046993.4,Y
1568614055.1,286046996.5,P
1568614075.8,286046996.6,P
1568614095.7,286046999.1,N
1568614115.5,286046996.8,Y
1568614135.4,286047000.4,P
1568614155.2,286047000.8,N
1568614175.0,286046998.7,N
1568614175.9,286046998.7,N
1568614195.8,286046998.5,N
1568614215.6,286047002.7,N
1568614235.5,286047002.5,N
1568614255.3,286047001.9,N
1568614275.1,286047000.2,N
1568614295.9,286047001.1,N
1568614315.7,286046998.3,N
1568614335.6,286046998.9,N
1568614355.4,286046999.1,N
1568614375.2,286046998.7,N
1568614395.1,286046997.1,N
1568614396.0,286046997.1,N
1568614415.8,286046998.8,N
1568614435.6,286046997.3,N
1568614455.5,286046995.3,N
1568614475.3,286046995.8,N
1568614495.2,286046997.1,N
1568614515.9,286046997.1,N
1568614535.7,286046999.5,N
1568614555.6,286046996.7,N
1568614575.4,286046998.8,N
1568614595.2,286046999.5,N
1568614615.1,286046995.1,N
1568614616.0,286046995.1,N
1568614635.8,286046995.4,N
1568614655.7,286046995.5,N
1568614675.5,286046995.7,N
1568614695.3,286046995.0,N
1568614715.2,286046997.6,N
1568614735.0,286046995.6,N
1568614735.9,286046995.6,N
1568614755.7,286046994.9,N
1568614775.6,286046995.6,N
1568614795.4,286046995.7,N
1568614815.3,286046997.0,N
1568614835.1,286046996.6,N
1568614855.8,286046996.2,N
1568614875.7,286046997.6,N
1568614895.5,286046997.6,N
1568614915.4,286046997.0,N
1568614935.2,286046999.0,N
1568614955.0,286046997.1,N
1568614955.9,286046997.1,N
1568614975.8,286046997.5,N
1568614995.6,286046999.5,N
1568615015.5,286046998.1,N
1568615035.3,286047001.2,N
1568615055.1,286046998.9,N
1568615075.9,286046999.4,N
1568615095.7,286046999.0,N
1568615115.5,286046997.1,N
1568615135.4,286046996.9,N
1568615155.2,286046999.6,N
1568615175.1,286046997.3,N
1568615176.0,286046997.3,N
1568615195.8,286046997.9,N
1568615215.6,286046995.2,Y
1568615235.5,286046999.5,P
1568615255.3,286046998.8,N
1568615275.2,286046999.5,N
1568615295.9,286047000.8,N
1568615315.7,286046998.1,N
1568615335.6,286047000.0,N
1568615355.4,286046999.8,N
1568615375.2,286046999.8,N
1568615395.1,286047000.2,N
1568615396.0,286047000.2,N
1568615415.8,286047000.9,N
1568615435.7,286046999.4,N
1568615455.5,286046998.9,N
1568615475.3,286046999.3,N
1568615495.2,286046999.2,N
1568615515.0,286046997.1,Y
1568615515.9,286046997.1,P
1568615535.8,286046998.7,N
1568615555.6,286046999.5,N
1568615575.4,286046999.6,N
1568615595.3,286046996.8,Y
1568615615.2,286047000.7,P
1568615635.9,286047000.7,N
1568615655.7,286046998.3,N
1568615675.6,286046996.6,Y
1568615695.4,286047000.7,P
1568615715.3,286047000.5,N
1568615735.1,286047000.9,N
1568615736.0,286047000.9,N
1568615755.8,286047000.6,N
1568615775.7,286047001.6,Y
1568615795.5,286047002.7,P
1568615815.4,286047000.7,N
1568615835.2,286046998.1,N
1568615855.0,286047000.8,N
1568615855.9,286047000.8,N
1568615875.8,286047000.8,N
1568615895.6,286046998.7,N
1568615915.4,286046999.0,N
1568615935.3,286046999.5,N
1568615955.1,286046998.5,N
1568615975.9,286047001.0,N
1568615995.7,286047000.9,N
1568616015.5,286047002.5,N
1568616035.4,286047001.4,N
1568616055.2,286047001.7,N
1568616075.1,286047002.5,N
1568616076.0,286047002.5,N
1568616095.8,286047002.3,N
1568616115.6,286046998.1,N
1568616135.5,286046999.7,N
1568616155.3,286046999.9,N
1568616175.1,286047002.0,N
1568616195.9,286047001.9,N
1568616215.7,286047002.0,N
1568616235.6,286047002.5,N
1568616255.4,286047002.8,N
1568616275.2,286047001.9,N
1568616295.1,286047003.9,N
1568616296.0,286047003.9,N
1568616315.8,286047004.3,N
1568616335.7,286047001.7,N
1568616355.5,286047003.2,N
1568616375.3,286047004.0,N
1568616395.2,286047003.3,N
1568616415.0,286047004.4,N
1568616415.9,286047004.4,N
1568616435.8,286047001.5,N
1568616455.6,286047000.6,N
1568616475.4,286047000.6,N
1568616495.3,286047000.1,N
1568616515.1,286047001.7,N
1568616535.8,286047002.6,N
1568616555.7,286047001.5,N
1568616575.5,286047001.6,N
1568616595.4,286047001.5,N
1568616615.2,286047002.6,N
1568616635.0,286047002.8,N
1568616635.9,286047002.8,N
1568616655.8,286047002.0,N
1568616675.6,286047002.2,N
1568616695.4,286047001.3,N
1568616715.3,286047002.1,N
1568616735.1,286047002.6,N
1568616755.9,286047001.3,N
1568616775.7,286047004.1,Y
1568616795.5,286047001.0,P
1568616815.4,286046999.8,N
1568616835.2,286047002.1,N
1568616855.1,286047001.4,N
1568616856.0,286047001.4,N
1568616875.8,286047002.0,N
1568616895.6,286047002.5,Y
1568616915.5,286046998.7,P
1568616935.3,286047000.7,N
1568616955.1,286047001.0,N
1568616975.9,286047002.8,N
1568616995.7,286047001.4,N
1568617015.6,286047002.6,N
1568617035.4,286047000.9,N
1568617055.2,286047000.7,N
1568617075.1,286047002.4,N
1568617076.0,286047002.4,N
1568617095.8,286047002.5,N
1568617115.7,286047001.6,N
1568617135.5,286047004.2,Y
1568617155.3,286047002.3,P
1568617175.2,286047001.6,P
1568617195.0,286047001.5,P
1568617195.9,286047001.5,Y
